FWI40J TFFR-LFPO

Flight info

Callsign FWI40J
Flight time N/A
Altitude 37000
Route CAIRN2F CAIRN DCT BNJEE DCT 20N059W 25N056W 30N052W 35N047W 40N040W/M085F390 44N030W 46N020W 46N015W DCT BUNAV DCT TIVLU/N0490F400 DCT AKEMO DCT TERPO DCT ANG/N0479F270 UN482 DEKJA/N0486F280 UN482 NIMER DCT CAD
Aircraft A35K/H-SDE2E3GHIJ3J4J5LM1ORWXY/LB1D1

Departure

Time N/A
Airport Maryse Condé International Airport (TFFR)

Arrival

Time 2026-05-06 04:13
Airport Paris-Orly Airport (LFPO)
Time Latitude Longitude Altitude Speed Heading
2026-05-06 01:51 45.37171 -23.73122 39327 ft 514 kts 68°
2026-05-06 01:51 45.38086 -23.68212 39328 ft 514 kts 68°
2026-05-06 01:52 45.39915 -23.58366 39325 ft 514 kts 68°
2026-05-06 01:52 45.41734 -23.48524 39344 ft 514 kts 68°
2026-05-06 01:53 45.43542 -23.38686 39322 ft 514 kts 68°
2026-05-06 01:53 45.45344 -23.28829 39313 ft 514 kts 68°
2026-05-06 01:54 45.47128 -23.19018 39320 ft 514 kts 68°
2026-05-06 01:54 45.48913 -23.09147 39321 ft 514 kts 68°
2026-05-06 01:55 45.50685 -22.99289 39322 ft 513 kts 68°
2026-05-06 01:55 45.52450 -22.89426 39319 ft 513 kts 68°
2026-05-06 01:56 45.54208 -22.79550 39318 ft 513 kts 68°
2026-05-06 01:56 45.55951 -22.69692 39318 ft 511 kts 69°
2026-05-06 01:57 45.57677 -22.59876 39318 ft 509 kts 69°
2026-05-06 01:57 45.59386 -22.50120 39312 ft 509 kts 69°
2026-05-06 01:58 45.61097 -22.40302 39342 ft 509 kts 69°
2026-05-06 01:58 45.62793 -22.30494 39314 ft 507 kts 69°
2026-05-06 01:59 45.64479 -22.20704 39308 ft 507 kts 69°
2026-05-06 01:59 45.66155 -22.10916 39309 ft 507 kts 69°
2026-05-06 02:00 45.67824 -22.01118 39310 ft 507 kts 70°
2026-05-06 02:00 45.69480 -21.91331 39308 ft 506 kts 70°
2026-05-06 02:01 45.71128 -21.81539 39303 ft 506 kts 70°
2026-05-06 02:01 45.72767 -21.71749 39303 ft 506 kts 70°
2026-05-06 02:02 45.74396 -21.61960 39304 ft 505 kts 70°
2026-05-06 02:02 45.76006 -21.52232 39300 ft 505 kts 71°
2026-05-06 02:03 45.77617 -21.42446 39298 ft 505 kts 71°
2026-05-06 02:03 45.79219 -21.32657 39298 ft 505 kts 71°
2026-05-06 02:04 45.80812 -21.22862 39303 ft 505 kts 71°
2026-05-06 02:04 45.82398 -21.13046 39295 ft 504 kts 71°
2026-05-06 02:05 45.83975 -21.03239 39293 ft 504 kts 71°
2026-05-06 02:05 45.85542 -20.93432 39292 ft 504 kts 71°
2026-05-06 02:06 45.87090 -20.83687 39290 ft 504 kts 71°
2026-05-06 02:06 45.88639 -20.73872 39289 ft 504 kts 72°
2026-05-06 02:07 45.90180 -20.64059 39292 ft 504 kts 72°
2026-05-06 02:07 45.91712 -20.54238 39289 ft 504 kts 72°
2026-05-06 02:08 45.93237 -20.44404 39284 ft 504 kts 72°
2026-05-06 02:08 45.94753 -20.34571 39284 ft 504 kts 72°
2026-05-06 02:09 45.96261 -20.24730 39287 ft 504 kts 72°
2026-05-06 02:09 45.97759 -20.14888 39296 ft 504 kts 72°
2026-05-06 02:10 45.99254 -20.05017 39283 ft 505 kts 72°
2026-05-06 02:10 46.00099 -19.94968 39281 ft 513 kts 82°
2026-05-06 02:11 46.00381 -19.84703 39278 ft 514 kts 83°
2026-05-06 02:11 46.00563 -19.74413 39287 ft 515 kts 84°
2026-05-06 02:12 46.00738 -19.64117 39276 ft 515 kts 84°
2026-05-06 02:12 46.00919 -19.53810 39275 ft 515 kts 84°
2026-05-06 02:13 46.01098 -19.43497 39274 ft 515 kts 84°
2026-05-06 02:13 46.01269 -19.33185 39282 ft 515 kts 84°
2026-05-06 02:14 46.01428 -19.22954 39280 ft 515 kts 84°
2026-05-06 02:14 46.01579 -19.12651 39275 ft 515 kts 84°
2026-05-06 02:15 46.01720 -19.02352 39273 ft 515 kts 84°
2026-05-06 02:15 46.01853 -18.92043 39287 ft 515 kts 84°
2026-05-06 02:16 46.01976 -18.81733 39258 ft 515 kts 85°
2026-05-06 02:16 46.02089 -18.71437 39260 ft 515 kts 85°
2026-05-06 02:17 46.02194 -18.61144 39265 ft 514 kts 85°
2026-05-06 02:17 46.02282 -18.51688 39271 ft 515 kts 85°
2026-05-06 02:18 46.02368 -18.41453 39260 ft 515 kts 85°
2026-05-06 02:18 46.02446 -18.31129 39257 ft 515 kts 85°
2026-05-06 02:19 46.02514 -18.20825 39255 ft 515 kts 85°
2026-05-06 02:19 46.02573 -18.10510 39273 ft 515 kts 85°
2026-05-06 02:20 46.02644 -17.95075 39252 ft 514 kts 86°
2026-05-06 02:21 46.02680 -17.84775 39250 ft 514 kts 86°
2026-05-06 02:21 46.02707 -17.74490 39247 ft 514 kts 86°
2026-05-06 02:22 46.02724 -17.64192 39243 ft 514 kts 86°
2026-05-06 02:22 46.02732 -17.53922 39242 ft 513 kts 86°
2026-05-06 02:23 46.02731 -17.43661 39243 ft 513 kts 86°
2026-05-06 02:23 46.02721 -17.33389 39232 ft 513 kts 86°
2026-05-06 02:24 46.02702 -17.23191 39230 ft 513 kts 87°
2026-05-06 02:24 46.02673 -17.12936 39229 ft 512 kts 87°
2026-05-06 02:25 46.02635 -17.02671 39231 ft 512 kts 87°
2026-05-06 02:25 46.02588 -16.92419 39228 ft 512 kts 87°
2026-05-06 02:26 46.02532 -16.82169 39229 ft 512 kts 88°
2026-05-06 02:26 46.02467 -16.71988 39224 ft 512 kts 88°
2026-05-06 02:27 46.02393 -16.61749 39219 ft 512 kts 88°
2026-05-06 02:27 46.02310 -16.51517 39216 ft 512 kts 88°
2026-05-06 02:28 46.02217 -16.41281 39216 ft 512 kts 88°
2026-05-06 02:28 46.02116 -16.31048 39214 ft 512 kts 88°
2026-05-06 02:29 46.02005 -16.20796 39215 ft 512 kts 88°
2026-05-06 02:29 46.01885 -16.10559 39213 ft 512 kts 88°
2026-05-06 02:30 46.01756 -16.00319 39217 ft 511 kts 88°
2026-05-06 02:30 46.01617 -15.90103 39206 ft 510 kts 88°
2026-05-06 02:31 46.01470 -15.79885 39204 ft 510 kts 89°
2026-05-06 02:31 46.01314 -15.69670 39202 ft 510 kts 89°
2026-05-06 02:32 46.01149 -15.59465 39207 ft 510 kts 89°
2026-05-06 02:32 46.00975 -15.49272 39198 ft 510 kts 89°
2026-05-06 02:33 46.00792 -15.39066 39196 ft 509 kts 89°
2026-05-06 02:33 46.00729 -15.35695 39188 ft 510 kts 89°
2026-05-06 02:34 46.00400 -15.18747 39192 ft 510 kts 89°
2026-05-06 02:34 46.00190 -15.08570 39186 ft 509 kts 90°
2026-05-06 02:35 46.00282 -14.98394 39185 ft 506 kts 80°
2026-05-06 02:35 46.01218 -14.88371 39181 ft 506 kts 79°
2026-05-06 02:36 46.02291 -14.78375 39189 ft 505 kts 79°
2026-05-06 02:36 46.03374 -14.68374 39176 ft 505 kts 79°
2026-05-06 02:37 46.04361 -14.59056 39179 ft 505 kts 79°
2026-05-06 02:37 46.05397 -14.49116 39173 ft 505 kts 79°
2026-05-06 02:38 46.06427 -14.39106 39169 ft 505 kts 79°
2026-05-06 02:38 46.07448 -14.29109 39167 ft 504 kts 79°
2026-05-06 02:39 46.08460 -14.19111 39166 ft 504 kts 79°
2026-05-06 02:39 46.09463 -14.09115 39163 ft 504 kts 79°
2026-05-06 02:40 46.10459 -13.99104 39163 ft 504 kts 80°
2026-05-06 02:40 46.11444 -13.89105 39159 ft 504 kts 80°
2026-05-06 02:41 46.12421 -13.79090 39250 ft 505 kts 80°
2026-05-06 02:41 46.12745 -13.75757 39383 ft 505 kts 80°
2026-05-06 02:41 46.13385 -13.69128 39690 ft 504 kts 80°
2026-05-06 02:41 46.13864 -13.64131 39898 ft 503 kts 80°
2026-05-06 02:42 46.14343 -13.59125 40065 ft 504 kts 80°
2026-05-06 02:42 46.14819 -13.54121 40231 ft 504 kts 80°
2026-05-06 02:42 46.15140 -13.50736 40349 ft 504 kts 80°
2026-05-06 02:42 46.15613 -13.45729 40520 ft 504 kts 80°
2026-05-06 02:43 46.16083 -13.40717 40697 ft 504 kts 80°
2026-05-06 02:43 46.16551 -13.35707 40864 ft 504 kts 80°
2026-05-06 02:43 46.17017 -13.30699 41014 ft 504 kts 81°
2026-05-06 02:43 46.17475 -13.25751 41128 ft 505 kts 81°
2026-05-06 02:44 46.17939 -13.20723 41147 ft 504 kts 81°
2026-05-06 02:44 46.18857 -13.10684 41143 ft 505 kts 81°
2026-05-06 02:45 46.19766 -13.00641 41138 ft 505 kts 81°
2026-05-06 02:45 46.20667 -12.90590 41138 ft 505 kts 81°
2026-05-06 02:46 46.21559 -12.80534 41137 ft 505 kts 81°
2026-05-06 02:46 46.22442 -12.70477 41135 ft 505 kts 81°
2026-05-06 02:47 46.23316 -12.60413 41132 ft 505 kts 81°
2026-05-06 02:47 46.24182 -12.50347 41133 ft 505 kts 81°
2026-05-06 02:48 46.25039 -12.40281 41129 ft 505 kts 81°
2026-05-06 02:48 46.25881 -12.30280 41127 ft 505 kts 81°
2026-05-06 02:49 46.26719 -12.20211 41124 ft 505 kts 81°
2026-05-06 02:49 46.27550 -12.10132 41124 ft 505 kts 81°
2026-05-06 02:50 46.28372 -12.00042 41120 ft 505 kts 82°
2026-05-06 02:50 46.29184 -11.89963 41119 ft 504 kts 82°
2026-05-06 02:51 46.29987 -11.79894 41116 ft 504 kts 82°
2026-05-06 02:51 46.30776 -11.69873 41116 ft 504 kts 82°
2026-05-06 02:52 46.31561 -11.59797 41116 ft 504 kts 82°
2026-05-06 02:52 46.32337 -11.49713 41113 ft 504 kts 82°
2026-05-06 02:53 46.33104 -11.39631 41113 ft 504 kts 82°
2026-05-06 02:53 46.33862 -11.29549 41113 ft 504 kts 82°
2026-05-06 02:54 46.34612 -11.19463 41106 ft 503 kts 82°
2026-05-06 02:54 46.35350 -11.09393 41102 ft 503 kts 82°
2026-05-06 02:55 46.36081 -10.99319 41103 ft 503 kts 82°
2026-05-06 02:55 46.36802 -10.89241 41099 ft 503 kts 82°
2026-05-06 02:56 46.37515 -10.79165 41100 ft 503 kts 83°
2026-05-06 02:56 46.38217 -10.69097 41099 ft 503 kts 83°
2026-05-06 02:57 46.38911 -10.59022 41094 ft 503 kts 83°
2026-05-06 02:57 46.39596 -10.48951 41094 ft 503 kts 83°
2026-05-06 02:58 46.40272 -10.38878 41088 ft 502 kts 83°
2026-05-06 02:58 46.40939 -10.28803 41093 ft 502 kts 83°
2026-05-06 02:59 46.41597 -10.18732 41087 ft 502 kts 83°
2026-05-06 02:59 46.42247 -10.08650 41091 ft 502 kts 83°
2026-05-06 03:00 46.42887 -9.98568 41081 ft 502 kts 83°
2026-05-06 03:00 46.43515 -9.88551 41083 ft 502 kts 83°
2026-05-06 03:01 46.44138 -9.78462 41083 ft 502 kts 83°
2026-05-06 03:01 46.44752 -9.68376 41080 ft 502 kts 83°
2026-05-06 03:02 46.45357 -9.58291 41075 ft 502 kts 84°
2026-05-06 03:02 46.45953 -9.48199 41075 ft 502 kts 84°
2026-05-06 03:03 46.46541 -9.38095 41072 ft 502 kts 84°
2026-05-06 03:03 46.47119 -9.27997 41080 ft 502 kts 84°
2026-05-06 03:04 46.47689 -9.17896 41070 ft 502 kts 84°
2026-05-06 03:04 46.48250 -9.07787 41070 ft 502 kts 84°
2026-05-06 03:05 46.48802 -8.97678 41067 ft 502 kts 84°
2026-05-06 03:05 46.49342 -8.87626 41067 ft 502 kts 84°
2026-05-06 03:06 46.49876 -8.77523 41061 ft 503 kts 84°
2026-05-06 03:06 46.50240 -8.67385 41059 ft 503 kts 88°
2026-05-06 03:07 46.50183 -8.57237 41058 ft 503 kts 90°
2026-05-06 03:07 46.50094 -8.47043 41056 ft 503 kts 89°
2026-05-06 03:08 46.50062 -8.36888 41053 ft 503 kts 89°
2026-05-06 03:08 46.50056 -8.26726 41053 ft 503 kts 89°
2026-05-06 03:09 46.50047 -8.16623 41053 ft 503 kts 89°
2026-05-06 03:09 46.50026 -8.06454 41055 ft 503 kts 89°
2026-05-06 03:10 46.50616 -7.96378 41052 ft 500 kts 78°
2026-05-06 03:10 46.51992 -7.86482 41048 ft 500 kts 76°
2026-05-06 03:11 46.53486 -7.76622 41046 ft 500 kts 76°
2026-05-06 03:11 46.54979 -7.66760 41050 ft 500 kts 76°
2026-05-06 03:12 46.56447 -7.56885 41039 ft 500 kts 76°
2026-05-06 03:12 46.57897 -7.47007 41039 ft 500 kts 77°
2026-05-06 03:13 46.59338 -7.37118 41037 ft 500 kts 77°
2026-05-06 03:13 46.60770 -7.27227 41036 ft 500 kts 77°
2026-05-06 03:14 46.62195 -7.17321 41034 ft 501 kts 77°
2026-05-06 03:14 46.63613 -7.07404 41030 ft 501 kts 77°
2026-05-06 03:15 46.65023 -6.97480 41006 ft 501 kts 77°
2026-05-06 03:15 46.66416 -6.87608 41011 ft 501 kts 77°
2026-05-06 03:16 46.67811 -6.77661 41027 ft 502 kts 77°
2026-05-06 03:16 46.69198 -6.67697 41027 ft 502 kts 77°
2026-05-06 03:17 46.70576 -6.57730 41011 ft 502 kts 77°
2026-05-06 03:17 46.71946 -6.47760 41013 ft 502 kts 77°
2026-05-06 03:18 46.73309 -6.37770 41016 ft 503 kts 77°
2026-05-06 03:18 46.74665 -6.27761 41011 ft 503 kts 77°
2026-05-06 03:19 46.76012 -6.17751 41010 ft 503 kts 78°
2026-05-06 03:19 46.77349 -6.07737 41007 ft 503 kts 78°
2026-05-06 03:20 46.79341 -5.92696 41003 ft 503 kts 77°
2026-05-06 03:20 46.80658 -5.82660 40989 ft 503 kts 77°
2026-05-06 03:21 46.81958 -5.72689 40996 ft 503 kts 78°
2026-05-06 03:21 46.83257 -5.62645 40994 ft 503 kts 78°
2026-05-06 03:22 46.84549 -5.52588 40988 ft 504 kts 78°
2026-05-06 03:22 46.85833 -5.42521 40995 ft 504 kts 78°
2026-05-06 03:23 46.87108 -5.32445 40984 ft 504 kts 78°
2026-05-06 03:23 46.88373 -5.22374 40978 ft 504 kts 78°
2026-05-06 03:24 46.89630 -5.12298 40974 ft 504 kts 78°
2026-05-06 03:24 46.90868 -5.02291 40978 ft 503 kts 78°
2026-05-06 03:25 46.92107 -4.92208 40976 ft 503 kts 78°
2026-05-06 03:25 46.93337 -4.82120 40973 ft 503 kts 79°
2026-05-06 03:26 46.94557 -4.72034 40968 ft 503 kts 79°
2026-05-06 03:26 46.95768 -4.61947 40970 ft 503 kts 79°
2026-05-06 03:27 46.96970 -4.51854 40959 ft 503 kts 79°
2026-05-06 03:27 46.98164 -4.41751 40960 ft 503 kts 79°
2026-05-06 03:28 46.99348 -4.31646 40957 ft 503 kts 79°
2026-05-06 03:28 47.00524 -4.21534 40959 ft 503 kts 79°
2026-05-06 03:29 47.01495 -4.13126 40967 ft 503 kts 79°
2026-05-06 03:29 47.02843 -4.01358 40955 ft 503 kts 79°
2026-05-06 03:30 47.03806 -3.92881 40952 ft 503 kts 79°
2026-05-06 03:30 47.04948 -3.82754 40950 ft 503 kts 79°
2026-05-06 03:31 47.06080 -3.72627 40950 ft 503 kts 79°
2026-05-06 03:31 47.07196 -3.62564 40945 ft 503 kts 80°
2026-05-06 03:32 47.08311 -3.52426 40944 ft 503 kts 80°
2026-05-06 03:32 47.09416 -3.42288 40941 ft 503 kts 80°
2026-05-06 03:33 47.10512 -3.32148 40940 ft 503 kts 80°
2026-05-06 03:33 47.11603 -3.21977 40939 ft 503 kts 81°
2026-05-06 03:34 47.12682 -3.11816 40933 ft 503 kts 81°
2026-05-06 03:34 47.13776 -3.01744 40933 ft 503 kts 77°
2026-05-06 03:35 47.15556 -2.91814 40930 ft 502 kts 73°
2026-05-06 03:35 47.17509 -2.81965 40928 ft 502 kts 73°
2026-05-06 03:36 47.19483 -2.72134 40927 ft 502 kts 73°
2026-05-06 03:36 47.21445 -2.62278 40921 ft 502 kts 73°
2026-05-06 03:37 47.23390 -2.52411 40919 ft 501 kts 73°
2026-05-06 03:37 47.25323 -2.42541 40913 ft 502 kts 73°
2026-05-06 03:38 47.27237 -2.32721 40911 ft 502 kts 73°
2026-05-06 03:38 47.29155 -2.22824 40910 ft 502 kts 73°
2026-05-06 03:39 47.31064 -2.12927 40910 ft 502 kts 73°
2026-05-06 03:39 47.32968 -2.03009 40912 ft 502 kts 74°
2026-05-06 03:40 47.34860 -1.93099 40911 ft 502 kts 74°
2026-05-06 03:40 47.36689 -1.83162 40911 ft 502 kts 75°
2026-05-06 03:41 47.38433 -1.73256 40911 ft 502 kts 75°
2026-05-06 03:41 47.40183 -1.63289 40913 ft 501 kts 75°
2026-05-06 03:42 47.41934 -1.53332 40909 ft 501 kts 75°
2026-05-06 03:42 47.43684 -1.43360 40910 ft 501 kts 75°
2026-05-06 03:43 47.45422 -1.33401 40909 ft 501 kts 75°
2026-05-06 03:43 47.47153 -1.23428 40903 ft 501 kts 76°
2026-05-06 03:44 47.48876 -1.13439 40903 ft 501 kts 76°
2026-05-06 03:44 47.50590 -1.03444 40904 ft 501 kts 76°
2026-05-06 03:45 47.52294 -0.93452 40898 ft 501 kts 76°
2026-05-06 03:45 47.53412 -0.83305 40895 ft 500 kts 89°
2026-05-06 03:46 47.53154 -0.73030 40896 ft 500 kts 94°
2026-05-06 03:46 47.52635 -0.62765 40889 ft 500 kts 95°
2026-05-06 03:47 47.52085 -0.52569 40885 ft 500 kts 95°
2026-05-06 03:47 47.51554 -0.42528 40883 ft 500 kts 95°
2026-05-06 03:48 47.51019 -0.32277 40885 ft 500 kts 95°
2026-05-06 03:48 47.50479 -0.22027 40791 ft 496 kts 95°
2026-05-06 03:49 47.50208 -0.16951 40147 ft 495 kts 95°
2026-05-06 03:49 47.49934 -0.11858 39331 ft 499 kts 95°
2026-05-06 03:49 47.49655 -0.06748 38588 ft 496 kts 95°
2026-05-06 03:49 47.49377 -0.01686 37309 ft 493 kts 95°
2026-05-06 03:50 47.49098 0.03359 36584 ft 491 kts 95°
2026-05-06 03:50 47.48818 0.08373 35920 ft 488 kts 95°
2026-05-06 03:50 47.48537 0.13371 35241 ft 486 kts 95°
2026-05-06 03:50 47.48255 0.18345 34516 ft 486 kts 95°
2026-05-06 03:51 47.47970 0.23326 33707 ft 486 kts 94°
2026-05-06 03:51 47.47769 0.28295 32838 ft 483 kts 89°
2026-05-06 03:51 47.48122 0.33206 32058 ft 479 kts 77°
2026-05-06 03:51 47.48967 0.37152 31380 ft 475 kts 66°
2026-05-06 03:52 47.50613 0.41363 30548 ft 473 kts 53°
2026-05-06 03:52 47.52676 0.45126 29735 ft 469 kts 50°
2026-05-06 03:52 47.54795 0.48772 28825 ft 465 kts 50°
2026-05-06 03:52 47.56891 0.52375 28137 ft 458 kts 50°
2026-05-06 03:53 47.58944 0.55918 27552 ft 450 kts 50°
2026-05-06 03:53 47.60965 0.59418 26960 ft 442 kts 50°
2026-05-06 03:53 47.62949 0.62863 26387 ft 435 kts 50°
2026-05-06 03:53 47.64891 0.66242 25824 ft 429 kts 49°
2026-05-06 03:54 47.66816 0.69598 25273 ft 423 kts 49°
2026-05-06 03:54 47.68708 0.72900 24702 ft 418 kts 49°
2026-05-06 03:54 47.70578 0.76170 24164 ft 414 kts 49°
2026-05-06 03:54 47.72440 0.79427 23620 ft 413 kts 49°
2026-05-06 03:55 47.74290 0.82669 23021 ft 412 kts 49°
2026-05-06 03:55 47.76134 0.85901 22460 ft 410 kts 49°
2026-05-06 03:55 47.77828 0.88875 21941 ft 409 kts 49°
2026-05-06 03:55 47.79626 0.92036 21401 ft 407 kts 49°
2026-05-06 03:56 47.81445 0.95239 20861 ft 405 kts 49°
2026-05-06 03:56 47.83255 0.98428 20311 ft 400 kts 49°
2026-05-06 03:56 47.85043 1.01582 19756 ft 398 kts 49°
2026-05-06 03:56 47.86833 1.04742 19207 ft 399 kts 50°
2026-05-06 03:57 47.88619 1.07901 18636 ft 399 kts 50°
2026-05-06 03:57 47.90403 1.11059 18047 ft 398 kts 50°
2026-05-06 03:57 47.92087 1.14045 17473 ft 397 kts 50°
2026-05-06 03:57 47.93856 1.17187 16890 ft 395 kts 50°
2026-05-06 03:58 47.94859 1.18970 16555 ft 393 kts 50°
2026-05-06 03:58 47.96608 1.22081 15983 ft 390 kts 50°
2026-05-06 03:58 47.98347 1.25177 15390 ft 388 kts 49°
2026-05-06 03:58 48.00075 1.28256 14820 ft 386 kts 49°
2026-05-06 03:59 48.01741 1.31229 14247 ft 385 kts 49°
2026-05-06 03:59 48.03455 1.34291 13658 ft 382 kts 49°
2026-05-06 03:59 48.05145 1.37268 13012 ft 378 kts 46°
2026-05-06 03:59 48.07099 1.39870 12594 ft 378 kts 34°
2026-05-06 04:00 48.09265 1.42108 12469 ft 373 kts 32°
2026-05-06 04:00 48.11327 1.44183 12212 ft 341 kts 32°
2026-05-06 04:00 48.13218 1.46086 11939 ft 315 kts 32°
2026-05-06 04:00 48.14983 1.47859 11665 ft 300 kts 32°
2026-05-06 04:01 48.16633 1.49520 11535 ft 302 kts 32°
2026-05-06 04:01 48.18375 1.51278 11415 ft 302 kts 32°
2026-05-06 04:01 48.20113 1.53036 11272 ft 301 kts 32°
2026-05-06 04:01 48.21844 1.54790 11112 ft 300 kts 32°
2026-05-06 04:02 48.23535 1.56505 10981 ft 300 kts 32°
2026-05-06 04:02 48.25264 1.58254 10836 ft 299 kts 32°
2026-05-06 04:02 48.26983 1.60001 10701 ft 299 kts 32°
2026-05-06 04:02 48.28705 1.61753 10557 ft 298 kts 33°
2026-05-06 04:03 48.30417 1.63499 10420 ft 297 kts 33°
2026-05-06 04:03 48.32127 1.65243 10296 ft 297 kts 32°
2026-05-06 04:03 48.33836 1.66986 10142 ft 296 kts 33°
2026-05-06 04:03 48.35533 1.68719 10002 ft 295 kts 32°
2026-05-06 04:04 48.37229 1.70453 9880 ft 294 kts 33°
2026-05-06 04:04 48.38902 1.72157 9722 ft 293 kts 33°
2026-05-06 04:04 48.40592 1.73887 9141 ft 295 kts 32°
2026-05-06 04:04 48.42293 1.75629 8618 ft 295 kts 32°
2026-05-06 04:05 48.43966 1.77342 8346 ft 285 kts 33°
2026-05-06 04:05 48.45570 1.78989 7938 ft 274 kts 33°
2026-05-06 04:05 48.47132 1.80592 7407 ft 268 kts 33°
2026-05-06 04:05 48.48690 1.82192 7215 ft 270 kts 33°
2026-05-06 04:06 48.50225 1.83770 6793 ft 263 kts 33°
2026-05-06 04:06 48.51736 1.85323 6337 ft 263 kts 33°
2026-05-06 04:06 48.53236 1.86866 5914 ft 259 kts 33°
2026-05-06 04:06 48.54720 1.88395 5556 ft 257 kts 33°
2026-05-06 04:07 48.56200 1.89927 5491 ft 258 kts 33°
2026-05-06 04:07 48.57468 1.91737 5399 ft 244 kts 48°
2026-05-06 04:07 48.58464 1.93733 5287 ft 232 kts 54°
2026-05-06 04:07 48.59280 1.95792 5183 ft 228 kts 59°
2026-05-06 04:08 48.60023 1.97900 5093 ft 227 kts 59°
2026-05-06 04:08 48.60762 2.00014 4937 ft 227 kts 59°
2026-05-06 04:08 48.61502 2.02106 4636 ft 225 kts 59°
2026-05-06 04:08 48.62239 2.04166 4354 ft 220 kts 58°
2026-05-06 04:09 48.62963 2.06178 4090 ft 214 kts 58°
2026-05-06 04:09 48.63670 2.08145 3904 ft 212 kts 58°
2026-05-06 04:09 48.64369 2.10115 3627 ft 211 kts 59°
2026-05-06 04:09 48.65040 2.12020 3339 ft 206 kts 58°
2026-05-06 04:10 48.65708 2.13906 3037 ft 200 kts 58°
2026-05-06 04:10 48.66356 2.15732 2810 ft 192 kts 58°
2026-05-06 04:10 48.66963 2.17450 2554 ft 178 kts 58°
2026-05-06 04:10 48.67533 2.19055 2298 ft 171 kts 58°
2026-05-06 04:11 48.68088 2.20629 2068 ft 165 kts 58°
2026-05-06 04:11 48.68603 2.22091 1846 ft 150 kts 56°
2026-05-06 04:11 48.69075 2.23422 1645 ft 137 kts 55°
2026-05-06 04:11 48.69516 2.24649 1453 ft 130 kts 55°
2026-05-06 04:12 48.69945 2.25835 1257 ft 131 kts 56°
2026-05-06 04:12 48.70369 2.27094 1081 ft 136 kts 59°
2026-05-06 04:12 48.70808 2.28357 840 ft 135 kts 55°
2026-05-06 04:12 48.71267 2.29620 675 ft 137 kts 60°
2026-05-06 04:13 48.71711 2.30886 502 ft 136 kts 57°
2026-05-06 04:13 48.72155 2.32142 324 ft 134 kts 56°
2026-05-06 04:13 48.72576 2.33328 292 ft 117 kts 61°
2026-05-06 04:13 48.72845 2.34085 291 ft 47 kts 62°
2026-05-06 04:14 48.72976 2.34491 286 ft 35 kts 71°
2026-05-06 04:14 48.73015 2.34804 287 ft 28 kts 82°
2026-05-06 04:14 48.73040 2.35066 288 ft 19 kts 85°
2026-05-06 04:14 48.73010 2.35230 290 ft 16 kts 127°
2026-05-06 04:15 48.72927 2.35326 289 ft 14 kts 138°
2026-05-06 04:15 48.72862 2.35418 290 ft 14 kts 153°
2026-05-06 04:15 48.72756 2.35477 289 ft 18 kts 165°
2026-05-06 04:15 48.72625 2.35531 288 ft 21 kts 164°
2026-05-06 04:16 48.72508 2.35580 288 ft 16 kts 165°
2026-05-06 04:16 48.72388 2.35629 286 ft 17 kts 165°
2026-05-06 04:16 48.72334 2.35728 285 ft 14 kts 87°
2026-05-06 04:16 48.72359 2.35888 290 ft 17 kts 75°
2026-05-06 04:17 48.72382 2.36013 288 ft 20 kts 74°
2026-05-06 04:17 48.72437 2.36307 290 ft 24 kts 74°
2026-05-06 04:17 48.72485 2.36565 288 ft 27 kts 74°
2026-05-06 04:17 48.72538 2.36850 287 ft 29 kts 74°
2026-05-06 04:18 48.72573 2.37044 288 ft 28 kts 74°
2026-05-06 04:18 48.72624 2.37322 289 ft 28 kts 74°
2026-05-06 04:18 48.72669 2.37565 289 ft 21 kts 75°
2026-05-06 04:18 48.72697 2.37697 290 ft 11 kts 57°
2026-05-06 04:19 48.72771 2.37750 287 ft 13 kts 17°
2026-05-06 04:19 48.72833 2.37755 289 ft 8 kts 333°
2026-05-06 04:19 48.72883 2.37683 285 ft 12 kts 310°
2026-05-06 04:19 48.72911 2.37631 290 ft 3 kts 310°
2026-05-06 04:20 48.72921 2.37613 290 ft 2 kts 310°
2026-05-06 04:20 48.72926 2.37604 289 ft 1 kts 310°
2026-05-06 04:20 48.72928 2.37600 286 ft 0 kts 310°